Simultaneous Nadir Overpasses (SNOs) Predictions

Prediction of SNOs between AQUA and METOP-A Satellite Orbit:

Table of predicted SNOs for the next 14.0 days since TLE Epoch: 9/24/2016
Index Date (AQUA) Time (AQUA) Lat,Lon (AQUA) SZA (AQUA ) Date (METOP-A) Time (METOP-A) Lat,Lon (METOP-A) SZA (METOP-A ) Distance(km) Time Diff (sec)
1 09/26/2016 03:14:47 73.43, 126.26 74.74 09/26/2016 03:13:38 73.35, 124.53 74.70 55.85 69
2 09/26/2016 04:04:20 -73.82, -66.94 104.84 09/26/2016 04:04:10 -73.82, -67.05 104.84 3.27 10
3 09/26/2016 04:53:49 73.89, 100.54 75.25 09/26/2016 04:54:48 73.93, 100.54 75.28 3.74 59
4 09/28/2016 22:49:07 73.67,-167.82 76.08 09/28/2016 22:47:55 73.60,-168.48 76.03 22.10 72
5 09/28/2016 23:38:36 -73.86, -0.58 103.72 09/28/2016 23:38:31 -73.87, -0.51 103.70 3.11 5
6 09/29/2016 00:28:05 73.93, 166.90 76.37 09/29/2016 00:29:10 73.93, 166.96 76.37 1.94 65
7 10/01/2016 18:23:25 73.77,-101.61 77.27 10/01/2016 18:22:14 73.80,-101.60 77.31 3.29 71
8 10/01/2016 19:12:52 -73.85, 65.87 102.64 10/01/2016 19:12:55 -73.83, 65.79 102.66 3.31 3
9 10/01/2016 20:02:21 73.92,-126.66 77.46 10/01/2016 20:03:33 73.93,-126.63 77.46 1.28 72
10 10/04/2016 13:57:41 73.78, -35.19 78.36 10/04/2016 13:56:37 73.80, -35.19 78.39 2.38 64
11 10/04/2016 14:47:08 -73.85, 132.29 101.55 10/04/2016 14:47:17 -73.88, 132.32 101.53 2.83 9
12 10/04/2016 15:36:41 74.14, -60.71 78.76 10/04/2016 15:37:52 74.13, -59.73 78.73 29.81 71
13 10/07/2016 09:31:57 73.80, 31.21 79.46 10/07/2016 09:31:00 73.80, 31.21 79.46 0.23 57
14 10/07/2016 10:21:24 -73.87,-161.31 100.46 10/07/2016 10:21:40 -73.88,-161.27 100.45 1.54 16




NCC Satellite Simultaneous Nadir Overpasses (SNOs) Prediction Service
